Weather History for Fort Campbell, KY

Change the Weather History Date:

Friday, February 8, 2013

  Actual Average Record
Temperature  
Mean Temperature 44 °F -  
Max Temperature 53 °F 47 °F 71 °F (2001)
Min Temperature 33 °F 29 °F 8 °F (2003)
Degree Days  
Heating Degree Days 22    
Moisture  
Dew Point 42 °F    
Average Humidity 92    
Maximum Humidity 100    
Minimum Humidity 70    
Precipitation  
Precipitation 0.43 in - - ()
Sea Level Pressure  
Sea Level Pressure 30.05 in    
Wind  
Wind Speed 10 mph (NNW)    
Max Wind Speed 17 mph    
Max Gust Speed 26 mph    
Visibility 8 miles    
Events Rain    
Averages and records for this station are not official NWS values.
T = Trace of Precipitation, MM = Missing Value Source: NWS Daily Summary

Daily Weather History Graph

Daily Weather History Graph

Search for Another Location

Airport:

Trip Planner

Search our weather history database for the weather conditions in past years. The results will help you decide how hot, cold, wet, or windy it might be!

Date:

Astronomy

Feb. 08, 2013 Rise Set
Actual Time 6:45 AM CST 5:23 PM CST
Civil Twilight 6:18 AM CST 5:50 PM CST
Nautical Twilight 5:47 AM CST 6:20 PM CST
Astronomical Twilight 5:17 AM CST 6:51 PM CST
Moon 5:12 AM CST (2/8) 3:57 PM CST (2/8)
Length of Visible Light 11h 31m
Length of Day
10h 38m
Waning Crescent, 3% of the Moon is Illuminated
Feb 8
Waning Crescent
Feb 10
New
Feb 17
First Quarter
Feb 25
Full
Mar 4
Last Quarter

Hourly Weather History & Observations

Time (CST) Temp. Windchill Dew Point Humidity Pressure Visibility Wind Dir Wind Speed Gust Speed Precip Events Conditions
12:07 AM 53.6 °F - 51.8 °F 94% 29.89 in 4.0 mi WSW 8.1 mph - N/A Rain Rain
12:09 AM 53.6 °F - 51.8 °F 94% 29.89 in 3.0 mi WSW 6.9 mph - N/A Rain Rain
12:11 AM 53.6 °F - 51.8 °F 94% 29.89 in 2.5 mi West 6.9 mph - N/A Rain Rain
12:15 AM 53.6 °F - 51.8 °F 94% 29.89 in 3.0 mi WNW 6.9 mph - N/A Rain Light Rain
12:25 AM 51.8 °F - 51.8 °F 100% 29.91 in 2.5 mi WNW 11.5 mph - N/A Rain Heavy Rain
12:29 AM 51.8 °F - 51.8 °F 100% 29.90 in 1.8 mi West 6.9 mph - N/A Rain Heavy Rain
12:30 AM 51.8 °F - 51.8 °F 100% 29.91 in 1.8 mi WNW 9.2 mph - N/A Rain Heavy Rain
12:32 AM 51.8 °F - 51.8 °F 100% 29.90 in 1.8 mi WNW 9.2 mph - N/A Rain Heavy Rain
12:33 AM 51.8 °F - 51.8 °F 100% 29.90 in 2.0 mi West 8.1 mph - N/A Rain Heavy Rain
12:47 AM 51.8 °F - 51.8 °F 100% 29.90 in 3.0 mi West 6.9 mph - N/A Rain Rain
12:55 AM 51.6 °F - 51.6 °F 100% 29.90 in 3.0 mi West 5.8 mph - 0.32 in Rain Rain
1:03 AM 51.8 °F - 51.8 °F 100% 29.90 in 4.0 mi West 5.8 mph - N/A Rain Rain
1:34 AM 51.8 °F - 51.8 °F 100% 29.91 in 8.0 mi WNW 9.2 mph - N/A Rain Light Rain
1:36 AM 51.8 °F - 51.8 °F 100% 29.91 in 8.0 mi WNW 9.2 mph - N/A Rain Light Rain
1:45 AM 51.8 °F - 51.8 °F 100% 29.92 in 9.0 mi NW 17.3 mph - N/A Rain Light Rain
1:55 AM 50.4 °F - 50.4 °F 100% 29.92 in 6.0 mi NNW 9.2 mph 18.4 mph 0.10 in Rain Light Rain
2:07 AM 50.0 °F - 50.0 °F 100% 29.92 in 10.0 mi NNW 15.0 mph 23.0 mph N/A   Light Drizzle
2:09 AM 50.0 °F - 50.0 °F 100% 29.92 in 10.0 mi NNW 15.0 mph 21.9 mph N/A   Light Drizzle
2:10 AM 50.0 °F - 50.0 °F 100% 29.92 in 10.0 mi NNW 15.0 mph 19.6 mph N/A   Light Drizzle
2:13 AM 48.2 °F - 48.2 °F 100% 29.93 in 10.0 mi NNW 13.8 mph 20.7 mph N/A   Light Drizzle
2:36 AM 48.2 °F - 48.2 °F 100% 29.94 in 10.0 mi NNW 13.8 mph 19.6 mph N/A   Light Drizzle
2:53 AM 46.4 °F 42.4 °F 46.4 °F 100% 29.95 in 10.0 mi NNW 8.1 mph - N/A   Light Drizzle
2:55 AM 46.9 °F - 46.9 °F 100% 29.95 in 10.0 mi NNW 9.2 mph - 0.00 in   Light Drizzle
3:14 AM 46.4 °F 41.5 °F 46.4 °F 100% 29.95 in 10.0 mi North 10.4 mph 24.2 mph N/A   Light Drizzle
3:17 AM 46.4 °F 41.5 °F 46.4 °F 100% 29.95 in 10.0 mi NNW 10.4 mph 18.4 mph N/A   Light Drizzle
3:20 AM 46.4 °F 41.1 °F 46.4 °F 100% 29.95 in 10.0 mi NNW 11.5 mph - N/A   Light Drizzle
3:27 AM 46.4 °F 42.4 °F 46.4 °F 100% 29.96 in 10.0 mi NNW 8.1 mph 17.3 mph N/A   Light Drizzle
3:31 AM 46.4 °F 41.1 °F 44.6 °F 93% 29.97 in 10.0 mi NNW 11.5 mph 17.3 mph N/A   Light Drizzle
3:37 AM 44.6 °F 39.7 °F 44.6 °F 100% 29.97 in 10.0 mi NNW 9.2 mph 19.6 mph N/A   Overcast
3:43 AM 44.6 °F 38.4 °F 44.6 °F 100% 29.98 in 10.0 mi NNW 12.7 mph - N/A   Overcast
3:55 AM 44.8 °F 38.7 °F 44.6 °F 99% 29.98 in 10.0 mi NNW 12.7 mph - 0.01 in   Overcast
3:59 AM 44.6 °F 38.8 °F 44.6 °F 100% 29.99 in 10.0 mi NNW 11.5 mph 23.0 mph N/A   Overcast
4:10 AM 44.6 °F 37.8 °F 44.6 °F 100% 29.99 in 10.0 mi NNW 15.0 mph 23.0 mph N/A   Overcast
4:40 AM 42.8 °F 37.0 °F 42.8 °F 100% 30.01 in 10.0 mi NNW 10.4 mph 18.4 mph N/A   Overcast
4:55 AM 43.0 °F 37.7 °F 42.8 °F 99% 30.02 in 10.0 mi NNW 9.2 mph - N/A   Overcast
5:24 AM 42.8 °F 36.6 °F 41.0 °F 93% 30.04 in 10.0 mi NNW 11.5 mph 20.7 mph N/A   Overcast
5:28 AM 42.8 °F 37.0 °F 41.0 °F 93% 30.04 in 10.0 mi NNW 10.4 mph 17.3 mph N/A   Overcast
5:55 AM 41.4 °F 35.7 °F 39.9 °F 95% 30.06 in 10.0 mi NNW 9.2 mph 23.0 mph N/A   Overcast
6:22 AM 41.0 °F 32.8 °F 37.4 °F 87% 30.08 in 10.0 mi North 16.1 mph 26.5 mph N/A   Overcast
6:51 AM 41.0 °F 33.9 °F 39.2 °F 93% 30.10 in 10.0 mi North 12.7 mph 18.4 mph N/A   Overcast
6:55 AM 40.8 °F 35.0 °F 38.5 °F 91% 30.10 in 10.0 mi North 9.2 mph 18.4 mph N/A   Overcast
7:51 AM 39.2 °F 31.2 °F 37.4 °F 93% 30.14 in 10.0 mi NNW 13.8 mph 20.7 mph N/A   Overcast
7:55 AM 39.9 °F 32.5 °F 36.7 °F 88% 30.14 in 10.0 mi NNW 12.7 mph 20.7 mph N/A   Overcast
8:43 AM 39.2 °F 33.0 °F 37.4 °F 93% 30.17 in 10.0 mi NNW 9.2 mph - N/A   Overcast
8:55 AM 39.7 °F 34.9 °F 37.2 °F 91% 30.17 in 10.0 mi NW 6.9 mph 17.3 mph N/A   Overcast
9:20 AM 39.2 °F 30.8 °F 35.6 °F 87% 30.19 in 10.0 mi NNW 15.0 mph 20.7 mph N/A   Overcast
9:55 AM 39.2 °F 32.0 °F 35.1 °F 85% 30.21 in 10.0 mi NNW 11.5 mph 18.4 mph N/A   Overcast
10:55 AM 39.7 °F 32.3 °F 34.5 °F 82% 30.23 in 10.0 mi NNW 12.7 mph - N/A   Overcast
11:55 AM 38.8 °F 30.4 °F 31.6 °F 75% 30.24 in 10.0 mi NNW 15.0 mph 23.0 mph N/A   Overcast
12:55 PM 40.3 °F 33.4 °F 31.6 °F 71% 30.25 in 10.0 mi NW 11.5 mph - N/A   Overcast
1:55 PM 41.0 °F 33.1 °F 32.2 °F 71% 30.24 in 10.0 mi North 15.0 mph - N/A   Overcast
2:55 PM 40.8 °F 34.5 °F 31.8 °F 70% 30.25 in 10.0 mi North 10.4 mph - N/A   Overcast
3:55 PM 39.9 °F 34.5 °F 30.7 °F 70% 30.27 in 10.0 mi NNW 8.1 mph - N/A   Overcast
4:55 PM 38.3 °F 30.9 °F 30.7 °F 74% 30.30 in 10.0 mi North 11.5 mph - N/A   Overcast
5:55 PM 36.5 °F 27.8 °F 29.8 °F 77% 30.32 in 10.0 mi North 13.8 mph - N/A   Overcast
6:55 PM 35.8 °F 27.3 °F 30.2 °F 80% 30.36 in 10.0 mi North 12.7 mph - N/A   Overcast
7:55 PM 34.5 °F 26.2 °F 29.1 °F 81% 30.35 in 10.0 mi NNE 11.5 mph - N/A   Overcast
8:55 PM 34.3 °F 24.6 °F 29.1 °F 81% 30.33 in 10.0 mi NNE 15.0 mph - N/A   Overcast
9:55 PM 34.3 °F 26.5 °F 29.1 °F 81% 30.36 in 10.0 mi NNE 10.4 mph - N/A   Overcast
10:55 PM 34.2 °F 26.8 °F 28.8 °F 81% 30.36 in 10.0 mi ENE 9.2 mph - N/A   Overcast
11:55 PM 33.6 °F 27.5 °F 29.1 °F 84% 30.36 in 10.0 mi NNE 6.9 mph - N/A   Overcast